GW3809 Weather Reports


Display with metric or nautical units.
time (UTC)temp
F
wind
direction
speed
MPH
gust
MPH
rain 1hr
in
rain 24hr
in
rain mn
in
humidity
%
barometer
mb
20260507003119 91 136 6.0 14.0 0.00 0.00 0.00 71 1007.1
20260507002615 91 120 10.0 10.0 0.00 0.00 0.00 71 1007.1
20260507002111 91 70 7.0 9.0 0.00 0.00 0.00 71 1007.0
20260507001608 92 78 5.0 9.0 0.00 0.00 0.00 70 1006.9
20260507001106 92 72 6.0 11.0 0.00 0.00 0.00 70 1006.9
20260507000602 93 47 9.0 10.0 0.00 0.00 0.00 68 1006.7
20260507000057 93 58 4.0 8.0 0.00 0.00 0.00 68 1006.6
20260506235555 93 17 3.0 10.0 0.00 0.00 0.00 67 1006.6
20260506235050 94 143 6.0 10.0 0.00 0.00 0.00 65 1006.6
20260506234548 96 49 5.0 7.0 0.00 0.00 0.00 57 1006.4
20260506234044 96 23 0.0 5.0 0.00 0.00 0.00 57 1006.3
20260506233541 96 34 0.0 7.0 0.00 0.00 0.00 57 1006.5
20260506233038 96 7 2.0 5.0 0.00 0.00 0.00 56 1006.2
20260506232534 96 65 1.0 4.0 0.00 0.00 0.00 56 1006.2
20260506232030 96 37 4.0 10.0 0.00 0.00 0.00 57 1006.2
20260506231528 97 69 3.0 9.0 0.00 0.00 0.00 57 1006.0
20260506231021 97 118 4.0 8.0 0.00 0.00 0.00 55 1005.9
20260506230516 97 56 0.0 4.0 0.00 0.00 0.00 54 1005.8
20260506230014 98 14 4.0 5.0 0.00 0.00 0.00 54 1006.0
20260506225510 98 337 6.0 8.0 0.00 0.00 0.00 54 1006.0
20260506225006 98 35 4.0 6.0 0.00 0.00 0.00 54 1005.9
20260506224503 98 35 4.0 7.0 0.00 0.00 0.00 54 1006.1
20260506224000 98 342 9.0 9.0 0.00 0.00 0.00 54 1006.0
20260506223456 97 46 3.0 4.0 0.00 0.00 0.00 54 1005.9
20260506222953 98 10 0.0 4.0 0.00 0.00 0.00 54 1005.8
20260506222449 98 7 2.0 6.0 0.00 0.00 0.00 54 1006.0
20260506221946 97 326 0.0 3.0 0.00 0.00 0.00 55 1006.2
20260506221443 98 38 3.0 9.0 0.00 0.00 0.00 54 1006.0
20260506220941 98 332 3.0 7.0 0.00 0.00 0.00 56 1006.2
20260506220437 97 353 4.0 9.0 0.00 0.00 0.00 55 1006.2
20260506215933 97 338 5.0 6.0 0.00 0.00 0.00 56 1006.4
20260506215430 97 156 0.0 5.0 0.00 0.00 0.00 54 1006.1
20260506214925 97 56 2.0 4.0 0.00 0.00 0.00 54 1006.3
20260506214422 98 13 4.0 7.0 0.00 0.00 0.00 53 1006.3
20260506213920 97 314 5.0 6.0 0.00 0.00 0.00 55 1006.5
20260506213418 98 330 4.0 7.0 0.00 0.00 0.00 55 1006.3
20260506212915 97 350 6.0 8.0 0.00 0.00 0.00 56 1006.3
20260506212411 96 343 2.0 3.0 0.00 0.00 0.00 57 1006.3
20260506211906 97 348 4.0 8.0 0.00 0.00 0.00 56 1006.4
20260506211402 96 4 2.0 5.0 0.00 0.00 0.00 57 1006.3
20260506210859 96 68 0.0 3.0 0.00 0.00 0.00 56 1006.6
20260506210356 96 323 2.0 6.0 0.00 0.00 0.00 57 1006.7
20260506205853 97 241 4.0 5.0 0.00 0.00 0.00 57 1006.8
20260506205349 98 317 4.0 8.0 0.00 0.00 0.00 55 1006.8
20260506204845 97 17 4.0 6.0 0.00 0.00 0.00 56 1006.8
20260506204343 97 336 5.0 6.0 0.00 0.00 0.00 56 1006.8
20260506203841 97 333 4.0 5.0 0.00 0.00 0.00 56 1006.9
20260506203337 98 304 4.0 6.0 0.00 0.00 0.00 55 1006.9
20260506202834 98 319 4.0 6.0 0.00 0.00 0.00 56 1006.7
20260506202332 98 298 1.0 3.0 0.00 0.00 0.00 55 1007.1
20260506201828 97 305 2.0 8.0 0.00 0.00 0.00 58 1007.1
20260506201326 97 290 2.0 4.0 0.00 0.00 0.00 56 1007.0
20260506200822 97 318 2.0 4.0 0.00 0.00 0.00 56 1007.3
20260506200318 97 334 4.0 6.0 0.00 0.00 0.00 57 1007.2
20260506195814 96 208 0.0 3.0 0.00 0.00 0.00 57 1007.2
20260506195312 96 182 3.0 6.0 0.00 0.00 0.00 59 1007.2
20260506194809 96 165 0.0 3.0 0.00 0.00 0.00 59 1007.3
20260506194305 95 19 2.0 4.0 0.00 0.00 0.00 58 1007.4
20260506193803 96 354 2.0 4.0 0.00 0.00 0.00 60 1007.5
20260506193259 95 229 2.0 5.0 0.00 0.00 0.00 59 1007.6
20260506192756 95 226 3.0 7.0 0.00 0.00 0.00 58 1007.8
20260506192253 95 267 4.0 7.0 0.00 0.00 0.00 59 1007.8
20260506191750 95 231 6.0 6.0 0.00 0.00 0.00 62 1007.9
20260506191246 94 20 2.0 4.0 0.00 0.00 0.00 63 1008.0
20260506190744 94 255 4.0 5.0 0.00 0.00 0.00 63 1007.9
20260506190240 93 212 3.0 7.0 0.00 0.00 0.00 61 1008.0
20260506185737 93 141 3.0 3.0 0.00 0.00 0.00 61 1008.2
20260506185233 93 208 4.0 6.0 0.00 0.00 0.00 63 1008.2
20260506184731 91 153 2.0 6.0 0.00 0.00 0.00 65 1008.2
20260506184228 92 118 3.0 8.0 0.00 0.00 0.00 64 1008.4
20260506183725 92 169 5.0 7.0 0.00 0.00 0.00 66 1008.4
20260506183220 92 208 5.0 9.0 0.00 0.00 0.00 64 1008.2
20260506182718 92 348 2.0 4.0 0.00 0.00 0.00 66 1008.4
20260506182215 92 145 5.0 9.0 0.00 0.00 0.00 66 1008.7
20260506181713 91 239 5.0 7.0 0.00 0.00 0.00 68 1008.4
20260506181210 91 155 6.0 11.0 0.00 0.00 0.00 66 1008.7
20260506180707 91 163 4.0 6.0 0.00 0.00 0.00 67 1008.7
20260506180203 91 192 4.0 8.0 0.00 0.00 0.00 67 1008.8
20260506175659 90 171 5.0 6.0 0.00 0.00 0.00 69 1008.8
20260506175156 90 210 4.0 7.0 0.00 0.00 0.00 69 1008.7
20260506174654 90 185 9.0 11.0 0.00 0.00 0.00 68 1008.8
20260506174150 90 217 4.0 9.0 0.00 0.00 0.00 68 1008.6
20260506173649 89 218 4.0 10.0 0.00 0.00 0.00 70 1008.9
20260506173145 89 165 6.0 9.0 0.00 0.00 0.00 70 1009.1
20260506172642 89 164 4.0 10.0 0.00 0.00 0.00 70 1009.0
20260506172139 89 168 4.0 7.0 0.00 0.00 0.00 71 1009.1
20260506171636 89 151 4.0 9.0 0.00 0.00 0.00 72 1008.9
20260506171134 88 190 8.0 15.0 0.00 0.00 0.00 73 1009.1
20260506170631 88 189 7.0 11.0 0.00 0.00 0.00 72 1009.0
20260506170123 88 166 5.0 9.0 0.00 0.00 0.00 74 1009.0
20260506165621 87 176 9.0 10.0 0.00 0.00 0.00 76 1009.0
20260506165117 86 163 4.0 11.0 0.00 0.00 0.00 76 1008.9
20260506164614 87 173 6.0 11.0 0.00 0.00 0.00 75 1009.1
20260506164112 86 208 3.0 11.0 0.00 0.00 0.00 75 1009.1
20260506163608 86 149 9.0 10.0 0.00 0.00 0.00 76 1009.2
20260506163103 86 156 5.0 12.0 0.00 0.00 0.00 75 1009.0
20260506162600 86 154 5.0 9.0 0.00 0.00 0.00 76 1008.7
20260506162057 86 172 3.0 11.0 0.00 0.00 0.00 76 1008.9
20260506161554 86 127 8.0 9.0 0.00 0.00 0.00 77 1008.8
20260506161051 86 148 7.0 11.0 0.00 0.00 0.00 76 1008.8
20260506160549 86 167 5.0 13.0 0.00 0.00 0.00 77 1008.7
20260506160045 85 165 5.0 12.0 0.00 0.00 0.00 77 1008.8
20260506155544 86 179 4.0 13.0 0.00 0.00 0.00 76 1008.7
20260506153715 85 173 5.0 8.0 0.00 0.00 0.00 78 1008.8
20260506153213 85 164 4.0 10.0 0.00 0.00 0.00 78 1008.8
20260506152710 84 143 3.0 7.0 0.00 0.00 0.00 79 1008.9
20260506152207 84 152 7.0 7.0 0.00 0.00 0.00 79 1008.8
20260506151706 84 133 7.0 12.0 0.00 0.00 0.00 79 1009.0
20260506151202 84 141 7.0 11.0 0.00 0.00 0.00 79 1009.0
20260506150659 84 181 8.0 9.0 0.00 0.00 0.00 80 1009.1
20260506150156 83 150 6.0 8.0 0.00 0.00 0.00 80 1009.0
20260506145653 84 152 3.0 9.0 0.00 0.00 0.00 80 1009.2
20260506145149 83 129 3.0 5.0 0.00 0.00 0.00 82 1009.1
20260506144647 83 174 5.0 13.0 0.00 0.00 0.00 81 1009.1
20260506144144 82 151 6.0 9.0 0.00 0.00 0.00 82 1009.2
20260506143641 82 169 4.0 9.0 0.00 0.00 0.00 83 1009.3
20260506143139 82 157 5.0 11.0 0.00 0.00 0.00 83 1009.2
20260506142638 81 175 5.0 10.0 0.00 0.00 0.00 85 1009.0
20260506142135 81 126 4.0 7.0 0.00 0.00 0.00 84 1009.6
20260506141632 81 168 7.0 8.0 0.00 0.00 0.00 84 1009.6
20260506141131 81 155 4.0 8.0 0.00 0.00 0.00 84 1009.3
20260506140628 81 171 3.0 14.0 0.00 0.00 0.00 84 1009.3
20260506140125 81 183 4.0 8.0 0.00 0.00 0.00 85 1009.3
20260506135622 80 177 4.0 6.0 0.00 0.00 0.00 85 1009.4
20260506135118 80 178 3.0 5.0 0.00 0.00 0.00 85 1009.3
20260506134615 80 183 5.0 7.0 0.00 0.00 0.00 85 1009.4
20260506134110 80 186 3.0 4.0 0.00 0.00 0.00 86 1009.2
20260506133608 80 131 2.0 3.0 0.00 0.00 0.00 86 1009.2
20260506133105 80 142 3.0 5.0 0.00 0.00 0.00 87 1009.1
20260506132602 80 159 3.0 4.0 0.00 0.00 0.00 87 1009.4
20260506132059 80 124 2.0 4.0 0.00 0.00 0.00 87 1009.2
20260506131556 80 156 2.0 6.0 0.00 0.00 0.00 88 1009.2
20260506131052 80 227 2.0 6.0 0.00 0.00 0.00 88 1009.3
20260506130549 80 147 5.0 5.0 0.00 0.00 0.00 88 1009.2
20260506130047 80 138 3.0 6.0 0.00 0.00 0.00 87 1009.1
20260506125545 80 153 4.0 5.0 0.00 0.00 0.00 87 1009.1
20260506125043 80 170 4.0 6.0 0.00 0.00 0.00 87 1008.8
20260506124540 80 186 2.0 5.0 0.00 0.00 0.00 87 1008.8
20260506124038 80 119 2.0 5.0 0.00 0.00 0.00 87 1008.9
20260506123535 80 123 3.0 5.0 0.00 0.00 0.00 87 1008.8
20260506123034 80 156 2.0 3.0 0.00 0.00 0.00 86 1008.7
20260506122530 80 126 2.0 3.0 0.00 0.00 0.00 86 1008.5
20260506122028 80 175 3.0 4.0 0.00 0.00 0.00 86 1008.2
20260506121525 80 175 3.0 11.0 0.00 0.00 0.00 86 1008.1
20260506121021 80 139 7.0 9.0 0.00 0.00 0.00 86 1008.1
20260506120520 80 172 6.0 9.0 0.00 0.00 0.00 86 1008.0
20260506120017 80 161 1.0 4.0 0.00 0.00 0.00 86 1007.8
20260506115514 80 147 3.0 6.0 0.00 0.00 0.00 87 1007.8
20260506115013 80 178 2.0 4.0 0.00 0.00 0.00 87 1007.8
20260506114510 80 195 4.0 7.0 0.00 0.00 0.00 87 1007.8
20260506114008 80 191 1.0 4.0 0.00 0.00 0.00 87 1007.7
20260506113506 80 140 2.0 5.0 0.00 0.00 0.00 87 1007.4
20260506113003 80 166 3.0 6.0 0.00 0.00 0.00 87 1007.6
20260506112459 80 124 4.0 8.0 0.00 0.00 0.00 87 1007.2
20260506111956 80 179 2.0 6.0 0.00 0.00 0.00 86 1007.4
20260506111455 80 166 2.0 5.0 0.00 0.00 0.00 86 1007.3
20260506110951 80 148 1.0 4.0 0.00 0.00 0.00 86 1007.2
20260506110449 80 143 4.0 6.0 0.00 0.00 0.00 86 1007.3
20260506105945 80 146 4.0 8.0 0.00 0.00 0.00 86 1007.3
20260506105442 80 158 3.0 8.0 0.00 0.00 0.00 86 1007.0
20260506104939 80 168 5.0 8.0 0.00 0.00 0.00 86 1007.0
20260506104438 80 144 4.0 7.0 0.00 0.00 0.00 86 1006.9
20260506103936 80 188 4.0 5.0 0.00 0.00 0.00 86 1007.0
20260506103432 80 143 5.0 8.0 0.00 0.00 0.00 86 1006.7
20260506102929 80 191 2.0 5.0 0.00 0.00 0.00 86 1006.5
20260506102427 80 145 4.0 4.0 0.00 0.00 0.00 86 1006.8
20260506101924 80 137 4.0 6.0 0.00 0.00 0.00 86 1006.7
20260506101420 80 146 2.0 6.0 0.00 0.00 0.00 86 1006.7
20260506100918 80 154 4.0 9.0 0.00 0.00 0.00 86 1006.5
20260506100416 80 135 4.0 6.0 0.00 0.00 0.00 86 1006.4
20260506095914 80 146 6.0 10.0 0.00 0.00 0.00 86 1006.4
20260506095412 80 164 4.0 6.0 0.00 0.00 0.00 86 1006.4
20260506094908 80 139 7.0 10.0 0.00 0.00 0.00 86 1006.4
20260506094407 80 139 5.0 6.0 0.00 0.00 0.00 86 1006.4
20260506093904 80 138 6.0 9.0 0.00 0.00 0.00 86 1006.5
20260506093402 80 135 3.0 5.0 0.00 0.00 0.00 85 1006.5
20260506092859 80 166 2.0 8.0 0.00 0.00 0.00 85 1006.5
20260506092357 80 186 5.0 13.0 0.00 0.00 0.00 86 1006.4
20260506091853 80 155 4.0 10.0 0.00 0.00 0.00 86 1006.4
20260506091352 80 172 3.0 7.0 0.00 0.00 0.00 86 1006.5
20260506090848 80 123 6.0 8.0 0.00 0.00 0.00 86 1006.5
20260506090346 80 150 8.0 10.0 0.00 0.00 0.00 86 1006.6
20260506085843 80 155 5.0 9.0 0.00 0.00 0.00 86 1006.6
20260506085339 80 188 9.0 13.0 0.00 0.00 0.00 86 1006.8
20260506084835 80 148 9.0 14.0 0.00 0.00 0.00 86 1006.6
20260506084332 80 156 6.0 13.0 0.00 0.00 0.00 86 1006.8
20260506083829 80 169 6.0 8.0 0.00 0.00 0.00 86 1006.6
20260506083326 80 150 7.0 9.0 0.00 0.00 0.00 86 1006.6
20260506082824 80 151 5.0 13.0 0.00 0.00 0.00 86 1006.6
20260506082320 80 154 6.0 11.0 0.00 0.00 0.00 85 1006.7
20260506081816 80 145 13.0 15.0 0.00 0.00 0.00 85 1006.8
20260506081314 80 168 6.0 12.0 0.00 0.00 0.00 85 1006.7
20260506080812 80 151 10.0 11.0 0.00 0.00 0.00 86 1006.8
20260506080308 80 160 10.0 11.0 0.00 0.00 0.00 86 1006.9
20260506073252 80 162 6.0 12.0 0.00 0.00 0.00 86 1007.2
20260506072749 80 167 6.0 11.0 0.00 0.00 0.00 86 1007.2
20260506072246 80 151 4.0 8.0 0.00 0.00 0.00 87 1007.2
20260506071744 80 155 5.0 7.0 0.00 0.00 0.00 86 1007.3
20260506071242 80 148 7.0 10.0 0.00 0.00 0.00 86 1007.2
20260506070739 80 129 7.0 11.0 0.00 0.00 0.00 86 1007.1
20260506070235 80 141 7.0 11.0 0.00 0.00 0.00 86 1007.2
20260506062212 80 143 11.0 14.0 0.00 0.00 0.00 85 1007.8
20260506061709 80 147 4.0 12.0 0.00 0.00 0.00 85 1007.8
20260506061206 80 144 14.0 15.0 0.00 0.00 0.00 85 1007.8
20260506060704 80 146 7.0 10.0 0.00 0.00 0.00 85 1007.8
20260506060155 80 152 8.0 12.0 0.00 0.00 0.00 85 1007.8
20260506051127 81 169 6.0 14.0 0.00 0.00 0.00 83 1008.1
20260506050626 81 153 6.0 14.0 0.00 0.00 0.00 83 1008.2
20260506050122 81 123 5.0 10.0 0.00 0.00 0.00 83 1008.5
20260506045116 81 149 10.0 13.0 0.00 0.00 0.00 83 1008.6
20260506044614 81 152 9.0 15.0 0.00 0.00 0.00 83 1008.4
20260506044110 81 164 9.0 14.0 0.00 0.00 0.00 83 1008.4
20260506043607 81 140 9.0 18.0 0.00 0.00 0.00 83 1008.2
20260506043106 81 150 5.0 15.0 0.00 0.00 0.00 82 1008.5
20260506042604 81 153 10.0 17.0 0.00 0.00 0.00 82 1008.5
20260506042102 81 148 7.0 10.0 0.00 0.00 0.00 82 1008.4
20260506041601 81 156 6.0 10.0 0.00 0.00 0.00 82 1008.4
20260506041057 81 149 7.0 14.0 0.00 0.00 0.00 81 1008.5
20260506040555 81 125 11.0 14.0 0.00 0.00 0.00 81 1008.5
20260506040051 81 139 8.0 16.0 0.00 0.00 0.00 80 1008.4
20260506035548 81 164 4.0 11.0 0.00 0.00 0.00 80 1008.2
20260506035044 81 148 11.0 15.0 0.00 0.00 0.00 80 1008.2
20260506034542 81 123 9.0 11.0 0.00 0.00 0.00 80 1008.2
20260506034038 81 146 7.0 11.0 0.00 0.00 0.00 80 1007.9
20260506033536 81 156 8.0 14.0 0.00 0.00 0.00 81 1007.9
20260506033033 82 162 9.0 16.0 0.00 0.00 0.00 80 1007.9
20260506032530 82 158 11.0 21.0 0.00 0.00 0.00 80 1007.9
20260506032027 82 150 10.0 12.0 0.00 0.00 0.00 80 1007.7
20260506031525 82 171 6.0 13.0 0.00 0.00 0.00 80 1007.8
20260506031021 82 139 8.0 13.0 0.00 0.00 0.00 80 1007.7
20260506030520 82 148 11.0 13.0 0.00 0.00 0.00 80 1007.5
20260506030016 82 165 5.0 15.0 0.00 0.00 0.00 80 1007.4
20260506025513 82 167 6.0 13.0 0.00 0.00 0.00 80 1007.5
20260506025009 82 165 5.0 13.0 0.00 0.00 0.00 80 1007.5
20260506024507 82 167 6.0 9.0 0.00 0.00 0.00 80 1007.4
20260506024002 82 152 6.0 16.0 0.00 0.00 0.00 80 1007.2
20260506023459 82 166 14.0 21.0 0.00 0.00 0.00 79 1007.2
20260506022956 82 168 5.0 12.0 0.00 0.00 0.00 79 1007.1
20260506022454 82 134 9.0 16.0 0.00 0.00 0.00 79 1006.9
20260506021951 82 161 6.0 12.0 0.00 0.00 0.00 79 1007.1
20260506021449 82 131 7.0 16.0 0.00 0.00 0.00 79 1007.1
20260506020945 82 137 9.0 12.0 0.00 0.00 0.00 79 1007.0
20260506020443 82 156 7.0 13.0 0.00 0.00 0.00 79 1006.9
20260506015940 82 131 10.0 16.0 0.00 0.00 0.00 79 1006.7
20260506015438 83 117 10.0 12.0 0.00 0.00 0.00 78 1006.8
20260506014934 83 142 6.0 8.0 0.00 0.00 0.00 78 1006.5
20260506014431 83 163 12.0 13.0 0.00 0.00 0.00 78 1006.5
20260506013928 83 139 11.0 14.0 0.00 0.00 0.00 78 1006.4
20260506013426 83 128 11.0 16.0 0.00 0.00 0.00 78 1006.4
20260506012922 83 159 13.0 18.0 0.00 0.00 0.00 78 1006.3
20260506012418 83 138 7.0 13.0 0.00 0.00 0.00 77 1006.3
20260506011916 83 152 6.0 12.0 0.00 0.00 0.00 77 1006.4
20260506011413 83 139 7.0 11.0 0.00 0.00 0.00 77 1006.0
20260506010909 83 144 10.0 18.0 0.00 0.00 0.00 77 1006.0
20260506010408 84 133 8.0 15.0 0.00 0.00 0.00 77 1005.9
20260506005904 84 147 12.0 15.0 0.00 0.00 0.00 76 1005.9
20260506005402 84 149 14.0 17.0 0.00 0.00 0.00 76 1005.8
20260506004857 84 175 6.0 15.0 0.00 0.00 0.00 76 1006.0
20260506004355 84 155 7.0 16.0 0.00 0.00 0.00 75 1005.8
20260506003851 85 155 8.0 16.0 0.00 0.00 0.00 75 1005.7
20260506003347 85 137 6.0 12.0 0.00 0.00 0.00 74 1005.5